sat.trackr.live / text

‹ back to catalog

JACK E

NORAD 66654 · 2025-274E

PAYLOAD ACTIVE UNKNOWN

§ Identity

Operator
Country
SKOR
Launch date
2025-11-26
Launch site
NSC
Launch vehicle
Mass (kg)
RCS (m²)

External: N2YO · Heavens-Above · Gunter

§ Orbital elements

Epoch: 2026-05-25T01:20:43.825056Z

Period
96.45 min
Inclination
97.7486°
Eccentricity
0.0014798
Mean motion
14.92975203 rev/d
Perigee alt
578.4 km
Apogee alt
599.0 km
Semi-major
6,966.8 km
B*
1.3891e-4
RAAN
74.5767°
Arg perigee
75.2684°
Mean anomaly
285.0174°
Rev number
2,676

§ Raw data

JACK E1 66654U 25274E   26145.05606279  .00001389  00000+0  13891-3 0  99952 66654  97.7486  74.5767 0014798  75.2684 285.0174 14.92975203 26767

JSON: /api/v1/satellites/66654 · /tle

For live sub-satellite position, see the globe view (requires WebGL).

§ Visibility from observer

Set your observer location to see the next 7 days of passes ≥ 10°. The values pass through the URL so the page stays shareable.

No JS? Fill the form by hand. The geolocation button needs JavaScript.